Wind_Speed
24 34 57 54 53 44 52 52 54 50 49 48 46 43 44 43 46 47 42 40 38 37 35 33 32 30 28 28 29 30 30 29 29 28 26 26 24 22 20 18 19 19 18 21 23
26 43 56 50 54 44 49 54 53 49 46 45 44 41 41 40 39 40 40 39 38 34 32 30 29 28 27 26 25 23 24 24 23 20 17 16 15 16 16 18 19 19 23 24 26
42 59 58 43 49 43 43 48 51 48 44 44 41 40 39 37 35 34 34 35 35 36 32 30 28 28 25 23 21 19 19 19 18 16 16 16 17 18 20 24 22 26 28 29 30
55 39 29 51 43 42 48 49 50 48 44 42 40 38 37 36 34 32 31 30 30 28 28 28 28 26 24 22 21 19 19 19 19 19 19 19 20 21 23 27 28 31 33 36 38
28 47 50 59 34 29 33 48 52 46 43 41 39 37 36 34 33 31 29 27 27 26 26 26 25 24 22 21 21 20 21 22 22 23 23 24 26 27 28 31 33 36 38 41 43
46 43 42 43 34 32 34 49 49 47 42 39 38 36 34 33 31 29 28 28 27 26 25 24 23 21 22 22 22 22 24 25 26 27 28 28 30 31 33 36 39 41 43 44 44
44 42 34 36 26 22 28 44 50 50 45 39 36 34 32 31 29 28 28 27 26 25 24 23 22 21 22 23 22 23 25 26 28 29 30 32 32 37 38 40 40 40 43 45 46
45 36 36 30 26 25 27 38 44 47 43 38 35 34 32 31 29 28 27 26 25 24 23 22 21 22 22 24 26 27 28 29 30 32 33 34 32 38 39 41 41 44 44 44 45
36 36 31 24 23 27 31 34 41 41 39 37 35 34 32 30 30 29 27 26 24 23 23 23 23 25 26 29 30 30 32 31 32 33 34 35 35 39 39 37 38 39 41 43 45
37 31 29 25 20 24 29 38 40 42 40 38 36 33 32 31 30 29 27 26 25 24 24 25 26 28 29 30 31 31 32 33 34 34 36 37 34 35 35 35 37 40 42 39 35
30 28 26 25 28 19 27 36 38 38 40 37 35 34 32 31 29 28 28 27 25 25 25 27 27 28 30 31 32 33 34 34 37 37 32 31 30 31 34 36 37 34 29 29 32
36 32 28 27 25 29 21 25 34 34 33 34 32 30 28 27 26 26 25 23 24 25 27 28 29 30 32 32 33 35 35 32 29 27 28 29 31 31 27 25 24 25 26 23 20
37 38 38 38 38 32 30 25 22 22 23 25 25 25 22 24 22 22 23 24 25 26 27 28 28 29 30 28 25 23 24 25 27 28 29 24 19 17 19 22 23 21 17 17 18
35 35 34 32 33 35 34 28 24 21 19 18 18 19 17 18 19 20 20 20 21 20 19 18 18 18 18 19 20 22 24 25 23 17 12 11 14 18 21 23 16 10 4 6 10
29 28 25 23 24 29 26 26 23 20 17 15 15 14 11 12 10 10 10 10 10 11 13 15 16 17 18 18 16 12 10 8 8 8 10 13 15 20 17 13 6 4 2 8 11
23 18 17 18 19 17 16 12 11 14 14 13 13 13 9 8 6 7 7 9 9 11 12 13 14 11 6 4 5 6 6 6 6 9 11 14 14 11 7 4 8 1 4 10 14
15 19 15 16 15 16 15 15 15 15 16 15 13 10 8 7 7 4 6 6 4 2 3 3 2 2 2 2 5 7 9 11 11 13 13 10 4 1 7 4 2 3 7 13 17
14 15 17 19 21 20 20 19 17 17 17 15 13 12 10 12 13 12 10 8 6 4 3 2 0 2 4 7 9 12 11 11 12 12 11 9 3 1 1 3 6 9 13 18 22
21 21 21 21 21 22 21 19 19 19 19 19 19 18 16 14 12 10 9 7 5 3 1 1 3 6 7 7 6 7 8 9 11 13 11 9 7 5 8 11 13 16 19 23 26
19 19 19 19 20 20 20 18 19 19 18 17 16 15 14 13 12 10 9 8 6 5 4 3 3 2 2 2 3 4 6 7 9 8 4 5 9 12 13 16 19 22 24 25 25
14 13 15 16 16 16 17 18 19 19 19 20 19 17 16 14 12 10 8 7 5 3 2 1 1 1 1 3 4 5 7 8 9 9 6 6 10 13 16 18 20 22 22 21 22
9 8 8 10 11 13 14 13 14 14 14 13 12 11 10 9 7 5 4 2 1 1 1 2 3 4 4 5 7 8 7 9 9 8 11 12 14 16 16 14 18 20 21 23 25
5 5 5 5 6 8 8 8 8 8 7 7 5 5 4 4 3 2 1 1 2 3 4 5 6 6 7 8 8 9 10 11 11 11 11 14 14 18 20 18 21 21 24 25 27
6 4 4 4 3 2 2 2 2 2 1 2 2 3 4 5 5 4 4 5 6 6 7 7 8 8 11 11 10 11 13 16 17 16 19 13 16 21 27 26 27 28 27 28 31
13 11 11 9 8 7 7 7 5 5 6 6 7 8 9 9 8 8 9 10 11 12 12 12 12 14 15 18 18 16 18 23 24 25 26 22 22 28 30 29 31 33 33 33 31
15 17 18 17 16 15 14 13 12 12 13 14 13 14 14 14 12 14 14 16 16 17 18 18 18 19 18 23 25 24 27 30 32 31 35 32 22 33 31 30 27 27 26 24 25
18 18 20 20 21 22 21 21 20 19 19 19 19 19 19 20 19 20 20 22 23 23 25 25 26 29 23 26 27 27 30 32 34 35 34 31 28 26 26 24 25 24 25 24 26
Wind_Direction
178 181 165 165 182 161 180 187 185 188 190 194 197 198 200 202 205 209 215 216 220 223 226 229 236 241 245 248 255 259 261 261 260 262 264 269 272 270 264 261 261 267 274 275 277
160 164 153 156 170 179 171 182 180 183 186 189 194 196 198 198 202 203 208 211 217 222 225 230 232 231 235 241 246 249 254 256 258 261 263 265 264 263 264 268 270 277 274 279 282
144 144 141 154 153 160 174 176 179 180 182 184 190 193 198 197 199 201 206 212 216 219 223 225 230 230 231 234 238 243 246 249 250 253 259 261 263 265 270 275 283 284 288 286 287
130 124 128 140 143 154 174 178 173 177 179 182 186 191 196 195 197 199 201 205 205 208 213 221 224 226 227 230 235 239 246 252 253 255 261 265 266 270 275 280 287 290 291 293 293
118 117 123 148 150 153 157 168 174 175 178 182 182 188 193 193 194 195 195 198 201 205 210 215 221 227 230 236 242 247 252 257 261 264 266 269 272 277 281 286 288 289 291 291 290
101 125 126 145 131 141 160 168 173 176 177 180 180 185 189 191 191 192 194 193 198 205 211 216 222 230 238 242 246 253 258 265 270 273 275 278 281 283 281 283 285 286 287 288 289
98 125 122 123 132 133 155 168 171 178 181 179 178 182 185 188 188 192 193 194 199 204 212 217 224 232 241 249 254 260 265 270 274 277 280 282 285 283 283 284 285 286 287 288 288
100 104 106 112 130 143 146 164 172 174 174 177 176 179 185 186 188 190 194 196 201 207 216 222 230 242 249 257 261 267 271 273 276 280 282 282 283 283 285 286 286 285 284 285 286
99 95 104 114 126 135 148 156 168 165 167 172 174 179 185 188 191 192 197 203 208 216 225 235 244 251 257 262 267 270 274 275 278 279 281 282 283 282 284 285 284 287 288 288 291
96 96 89 87 103 126 146 156 162 168 169 172 175 181 185 191 195 199 203 211 218 227 237 245 250 254 258 262 265 270 273 276 278 280 282 283 285 286 288 288 289 291 294 298 301
86 81 84 85 86 115 141 154 163 166 169 173 178 184 188 193 200 205 211 217 226 235 244 251 256 261 264 268 271 273 275 277 279 280 283 284 287 290 289 291 294 299 304 303 303
74 75 76 79 88 98 108 152 161 168 170 172 179 187 189 198 204 212 219 226 237 244 249 256 259 265 268 271 276 278 279 281 281 284 287 290 293 295 299 298 295 299 305 308 308
82 80 78 77 79 89 100 124 150 163 172 176 182 189 196 202 211 218 225 232 242 250 258 265 270 273 276 278 279 282 286 287 287 289 291 295 290 289 287 287 296 306 313 320 322
74 72 71 75 84 87 89 102 124 145 163 174 184 193 201 208 220 230 239 248 257 258 258 260 263 269 276 282 288 291 289 289 289 287 287 297 293 284 286 296 297 309 19 47 40
64 59 58 62 78 82 91 94 105 116 133 151 160 175 187 197 201 201 201 211 232 252 264 272 278 282 286 291 293 294 297 292 283 285 289 293 294 287 291 285 277 165 32 24 15
59 56 68 56 58 61 77 80 110 129 129 142 144 147 155 173 193 218 245 252 263 269 275 278 279 280 282 272 289 301 300 299 286 292 298 300 299 292 269 216 150 120 11 355 349
21 33 44 63 69 74 76 91 106 121 125 135 135 144 145 159 179 219 233 241 237 163 128 109 101 137 218 249 291 306 312 310 305 295 289 290 285 186 123 87 119 346 331 327 329
49 51 57 72 79 86 90 96 107 109 110 115 125 133 138 130 128 127 125 126 126 124 122 143 323 315 290 291 306 314 316 309 302 295 283 252 202 191 298 284 297 300 312 320 324
61 66 66 69 74 79 82 89 95 103 109 112 113 116 120 123 122 121 119 119 117 120 127 286 297 299 302 306 314 316 319 323 319 297 286 237 251 260 280 285 294 304 311 319 321
62 68 72 74 73 74 79 83 92 99 106 111 117 119 121 124 123 122 117 116 115 108 94 77 58 47 18 342 340 347 345 343 340 349 311 245 272 278 284 291 301 305 314 319 320
59 64 74 77 76 78 85 94 99 99 101 103 104 107 108 109 108 108 107 103 101 95 77 43 356 324 307 312 309 312 323 334 341 346 324 297 278 293 290 300 304 310 318 322 322
49 55 67 72 77 79 84 96 103 103 100 101 101 101 98 95 92 89 80 67 53 8 345 340 333 322 321 322 325 327 329 324 321 319 315 313 308 303 304 315 309 313 314 312 314
11 25 32 43 65 74 83 84 93 100 96 93 91 81 67 54 35 19 347 304 289 293 299 301 305 305 308 315 313 313 316 315 313 313 312 315 311 303 299 308 303 306 308 310 316
288 282 301 309 324 9 75 93 86 79 42 1 341 326 328 333 329 311 290 287 287 290 290 292 293 289 289 292 290 284 289 294 298 300 294 312 300 294 301 309 306 307 308 306 310
266 267 268 267 263 270 274 274 270 271 279 286 292 292 293 293 295 288 282 278 278 279 279 278 276 290 286 286 296 293 289 289 293 293 293 297 294 287 294 299 300 302 304 310 315
270 266 262 263 263 264 262 263 265 271 277 278 279 281 283 286 285 282 281 280 281 280 281 281 282 278 278 283 288 295 294 294 295 292 299 294 299 293 295 299 302 307 316 316 316
276 271 267 264 262 265 269 272 272 271 269 270 274 277 276 277 278 278 278 280 283 283 285 291 292 290 292 286 286 291 288 288 288 291 298 303 300 294 298 305 306 304 309 313 311
Height
5566 5573 5586 5610 5628 5643 5662 5674 5689 5704 5718 5730 5741 5751 5761 5769 5777 5785 5792 5799 5805 5811 5815 5819 5823 5826 5829 5831 5832 5832 5833 5834 5835 5835 5834 5835 5836 5837 5838 5839 5838 5839 5840 5840 5839
5569 5579 5594 5616 5633 5645 5657 5675 5690 5704 5718 5729 5740 5750 5759 5767 5775 5782 5789 5795 5802 5807 5812 5816 5819 5822 5824 5826 5827 5827 5829 5830 5831 5832 5831 5832 5832 5833 5835 5836 5836 5837 5836 5836 5836
5579 5590 5607 5622 5638 5653 5665 5680 5692 5705 5717 5728 5739 5749 5759 5766 5774 5780 5787 5793 5798 5804 5809 5813 5816 5819 5821 5822 5823 5824 5826 5826 5827 5828 5828 5829 5829 5830 5831 5830 5832 5831 5831 5831 5830
5594 5604 5616 5630 5644 5655 5667 5681 5693 5706 5717 5729 5740 5750 5758 5765 5774 5779 5786 5792 5796 5801 5805 5809 5812 5815 5817 5819 5820 5821 5822 5823 5824 5825 5826 5826 5826 5827 5827 5826 5826 5824 5824 5822 5821
5613 5620 5630 5641 5650 5661 5672 5684 5697 5708 5719 5730 5740 5750 5758 5765 5772 5778 5784 5789 5794 5799 5803 5806 5809 5812 5815 5816 5817 5818 5819 5820 5820 5821 5821 5821 5821 5821 5821 5820 5820 5818 5817 5815 5813
5630 5639 5645 5655 5664 5673 5678 5688 5698 5710 5721 5731 5740 5750 5758 5766 5771 5777 5782 5787 5791 5796 5800 5803 5807 5810 5812 5813 5814 5814 5815 5816 5816 5816 5816 5816 5815 5815 5815 5814 5813 5811 5810 5808 5806
5646 5653 5659 5666 5673 5678 5684 5693 5701 5712 5723 5733 5741 5751 5758 5766 5771 5777 5781 5786 5790 5794 5798 5801 5804 5806 5808 5809 5810 5810 5811 5811 5811 5811 5811 5810 5810 5807 5808 5806 5805 5803 5801 5799 5797
5662 5667 5672 5677 5681 5685 5691 5699 5708 5716 5726 5735 5743 5751 5759 5765 5770 5776 5781 5785 5788 5792 5796 5798 5800 5803 5804 5806 5806 5806 5806 5806 5806 5806 5805 5805 5804 5801 5800 5798 5796 5793 5791 5789 5786
5673 5677 5682 5686 5690 5692 5698 5705 5714 5722 5730 5738 5746 5752 5759 5765 5770 5774 5779 5783 5787 5790 5793 5796 5798 5799 5801 5801 5802 5801 5801 5801 5800 5799 5798 5797 5797 5793 5792 5791 5788 5786 5783 5780 5778
5687 5690 5692 5693 5693 5696 5703 5708 5716 5724 5732 5739 5746 5755 5760 5765 5770 5774 5778 5782 5786 5788 5791 5793 5794 5795 5796 5796 5796 5796 5796 5795 5794 5794 5791 5790 5788 5785 5784 5783 5780 5778 5775 5773 5770
5700 5700 5699 5700 5702 5703 5708 5714 5722 5729 5734 5741 5747 5753 5759 5764 5769 5773 5777 5781 5783 5786 5788 5790 5791 5791 5792 5792 5792 5791 5790 5789 5787 5785 5784 5782 5780 5779 5779 5777 5774 5771 5769 5767 5764
5708 5708 5708 5708 5708 5710 5715 5719 5724 5733 5738 5743 5749 5754 5759 5764 5769 5773 5777 5780 5782 5783 5785 5787 5787 5787 5787 5787 5786 5785 5783 5782 5782 5780 5778 5777 5775 5773 5772 5770 5768 5768 5765 5763 5760
5722 5721 5720 5719 5718 5719 5721 5726 5733 5739 5745 5748 5752 5757 5762 5766 5769 5773 5776 5777 5779 5781 5782 5783 5784 5784 5783 5782 5781 5780 5779 5778 5777 5775 5773 5771 5770 5769 5768 5766 5765 5764 5762 5760 5758
5731 5730 5730 5731 5733 5731 5732 5734 5738 5743 5749 5754 5757 5760 5764 5767 5770 5772 5773 5776 5777 5779 5779 5779 5779 5779 5778 5778 5777 5775 5774 5772 5771 5770 5769 5768 5768 5765 5763 5763 5762 5762 5761 5760 5758
5741 5739 5739 5739 5739 5739 5742 5744 5746 5749 5753 5757 5759 5763 5765 5768 5770 5771 5772 5774 5775 5776 5777 5776 5776 5775 5775 5774 5773 5772 5771 5769 5769 5768 5767 5766 5765 5762 5760 5760 5760 5761 5760 5758 5756
5749 5749 5747 5746 5745 5747 5747 5748 5750 5754 5755 5759 5760 5763 5766 5767 5769 5770 5772 5773 5774 5774 5774 5774 5773 5772 5772 5772 5772 5771 5770 5769 5768 5767 5766 5764 5762 5760 5758 5759 5760 5760 5759 5757 5754
5754 5753 5752 5751 5752 5751 5751 5753 5755 5755 5758 5761 5762 5764 5766 5767 5769 5771 5772 5772 5773 5774 5773 5773 5772 5772 5773 5773 5772 5771 5769 5768 5767 5766 5764 5762 5762 5761 5760 5761 5760 5759 5757 5755 5751
5759 5758 5757 5756 5755 5754 5755 5757 5758 5759 5761 5762 5763 5764 5767 5768 5771 5772 5772 5773 5774 5774 5774 5774 5775 5773 5773 5772 5771 5769 5768 5767 5765 5764 5763 5762 5763 5762 5761 5760 5759 5757 5754 5752 5748
5765 5764 5763 5763 5762 5762 5762 5762 5763 5763 5764 5765 5767 5768 5770 5771 5773 5773 5774 5774 5774 5774 5775 5774 5773 5772 5771 5771 5771 5769 5768 5767 5764 5761 5761 5761 5762 5762 5760 5758 5756 5754 5751 5748 5745
5773 5772 5770 5769 5768 5767 5767 5766 5767 5768 5768 5769 5770 5771 5773 5773 5774 5775 5775 5775 5775 5775 5775 5774 5773 5772 5771 5770 5770 5769 5768 5766 5763 5760 5759 5760 5760 5759 5757 5755 5753 5750 5747 5744 5741
5779 5778 5776 5775 5775 5774 5773 5773 5773 5772 5773 5774 5774 5775 5775 5776 5776 5777 5777 5777 5776 5776 5775 5774 5774 5774 5772 5771 5769 5768 5766 5764 5763 5761 5760 5759 5759 5756 5754 5752 5749 5746 5743 5740 5737
5782 5782 5780 5780 5780 5779 5778 5778 5778 5778 5778 5778 5779 5779 5779 5778 5778 5777 5777 5777 5776 5775 5774 5774 5773 5772 5772 5770 5768 5767 5765 5763 5762 5761 5758 5757 5756 5752 5750 5748 5745 5742 5739 5736 5733
5783 5783 5782 5782 5781 5781 5780 5781 5781 5780 5781 5781 5780 5780 5779 5779 5779 5778 5777 5776 5775 5775 5774 5773 5772 5770 5769 5769 5767 5765 5763 5761 5760 5758 5757 5754 5753 5748 5745 5744 5741 5739 5735 5731 5728
5783 5783 5782 5782 5782 5781 5780 5780 5780 5780 5780 5780 5780 5779 5779 5779 5778 5778 5777 5776 5775 5774 5773 5772 5770 5769 5768 5766 5764 5762 5760 5758 5756 5755 5753 5753 5750 5743 5741 5740 5736 5733 5730 5727 5722
5779 5780 5780 5781 5780 5780 5780 5779 5779 5778 5777 5777 5777 5777 5777 5776 5775 5775 5774 5773 5772 5770 5769 5768 5767 5765 5764 5761 5760 5759 5756 5752 5750 5748 5746 5747 5743 5739 5736 5734 5730 5727 5723 5720 5716
5774 5775 5775 5775 5776 5776 5776 5776 5775 5775 5775 5774 5774 5774 5773 5773 5773 5772 5770 5769 5768 5767 5764 5763 5763 5761 5760 5757 5754 5753 5750 5746 5743 5741 5736 5734 5737 5727 5727 5725 5722 5719 5717 5715 5712
5769 5768 5768 5769 5770 5770 5771 5770 5770 5770 5770 5769 5769 5769 5768 5768 5767 5766 5765 5763 5762 5761 5758 5757 5755 5752 5753 5750 5748 5748 5744 5740 5736 5733 5728 5726 5726 5721 5720 5717 5715 5712 5710 5708 5705